Regional Weather Roundup
Issued by NWS

Home | Current Version | Previous Version | Graphics & Text | Print | Product List | Glossary On
Versions: 1 2 3 4 5 6 7 8 9 10 11 12 13 14 15 16 17 18 19 20 21 22 23 24 25 26 27 28 29 30 31 32 33 34 35 36 37 38 39 40 41 42 43 44 45 46 47 48 49 50
000
ASUS45 KBOU 051507
RWRCO

WEATHER ROUNDUP FOR COLORADO
NATIONAL WEATHER SERVICE DENVER/BOULDER CO
900 AM MDT THU MAY 05 2016

NOTE: "FAIR" INDICATES FEW OR NO CLOUDS BELOW 12000 FEET WITH NO
SIGNIFICANT WEATHER AND/OR OBSTRUCTIONS TO VISIBILITY.

COZ001>005-013-030-031-051600-
...NORTHWEST COLORADO...

CITY           SKY/WX    TMP DP  RH WIND       PRES   REMARKS
CRAIG          FAIR      57  33  40 NE13      30.19F
HAYDEN         FAIR      52  30  43 E14       30.22S
MEEKER         FAIR      56  31  38 CALM      30.20F
MOUNT WERNER   NOT AVBL
STEAMBOAT SPGS FAIR      43  33  65 CALM      30.25F
WALDEN         FAIR      43  27  52 SE5       30.33S
$$

COZ006>008-011-051600-
...WEST CENTRAL VALLEYS...

CITY           SKY/WX    TMP DP  RH WIND       PRES   REMARKS
GRAND JUNCTION FAIR      62  32  32 SE18      30.12S
MONTROSE       FAIR      64  29  26 SE9       30.20F
EAGLE          SUNNY     48  30  49 CALM      30.31F
RIFLE          FAIR      55  34  45 N5        30.19F
DELTA          NOT AVBL
NUCLA          NOT AVBL
$$

COZ017>023-064>068-051600-
...SOUTHWEST COLORADO...

CITY           SKY/WX    TMP DP  RH WIND       PRES   REMARKS
DURANGO        FAIR      56  33  42 E3        30.26S
CORTEZ         FAIR      67  29  24 CALM      30.19R
PAGOSA SPRINGS FAIR      54  24  31 CALM      30.33F
TELLURIDE      FAIR      56  22  27 E3        30.37F
WOLF CREEK PAS FAIR      41  18  38 CALM      30.56R
$$

COZ009-010-012-014-032>034-037-058>063-051600-
...CENTRAL COLORADO...

CITY           SKY/WX    TMP DP  RH WIND       PRES   REMARKS
ASPEN          FAIR      56  25  30 CALM      30.29S
BUENA VISTA    FAIR      50  31  47 CALM      30.35S
COPPER MTN     NOT AVBL
BERTHOUD PASS  FAIR      34  27  75 NW26G33   30.51R WCI  21
COTTONWOOD PAS FAIR      52  23  32 CALM      30.43R
GUNNISON       FAIR      45  30  57 CALM      30.38S
KREMMLING      FAIR      43  28  56 CALM      30.34F
LEADVILLE      FAIR      45  20  36 CALM      30.41S
MONARCH PASS   FAIR      39  19  45 W12       30.63R
SALIDA         FAIR      50  31  46 NW3       30.41S
SUNLIGHT       FAIR      50  21  32 CALM      30.48R
WILKERSON PASS FAIR      46  18  31 W3        30.51S
$$

COZ069>075-051600-
...SAN LUIS VALLEY/SANGRE DE CRISTO MOUNTAINS...

CITY           SKY/WX    TMP DP  RH WIND       PRES   REMARKS
ALAMOSA        FAIR      54  25  32 SE6       30.33S
LA VETA PASS   FAIR      50  23  34 S7        30.44R
SAGUACHE       FAIR      50  28  43 CALM      30.36S
$$

COZ035-036-038>040-051600-
...NORTHERN COLORADO FRONT RANGE...

CITY           SKY/WX    TMP DP  RH WIND       PRES   REMARKS
DENVER INTL AP PTSUNNY   63  35  35 SW5       30.16R
DMNS CITY PARK   N/A     66  33  29 S6        30.15S
AURORA         FAIR      64  33  32 SW6       30.17S
FRONT RANGE AP NOT AVBL
ERIE MUNI ARPT FAIR      61  41  48 CALM      30.15S
BOULDER MUN AP FAIR      61  39  44 CALM      30.15S
CENTENNIAL     PTSUNNY   65  32  29 W6        30.18R
BROOMFIELD     NOT AVBL
FORT COLLINS   FAIR      57  43  58 CALM      30.15S
LONGMONT       FAIR      63  39  41 CALM      30.16S
$$

COZ041-046-047-076>085-087-088-051600-
...PIKES PEAK/PALMER DIVIDE AND SOUTHERN FOOTHILLS...

CITY           SKY/WX    TMP DP  RH WIND       PRES   REMARKS
COLO. SPRINGS  FAIR      70  28  21 NW10      30.20S
A. F. ACADEMY  FAIR      68  28  22 N12       30.21S
SCHRIEVER AFB  NOT AVBL
ELLICOTT       FAIR     N/A N/A N/A CALM      30.19R
FALCON         NOT AVBL
FORT CARSON    FAIR      65  34  31 CALM      30.18R
LIMON          FAIR      60  42  51 CALM      30.18S
MONUMENT HILL  FAIR      63  32  31 NW8       30.26S
TRINIDAD       FAIR      62  29  28 S3        30.19S
$$

COZ042>045-048>051-090-091-051600-
...NORTHEAST COLORADO...

CITY           SKY/WX    TMP DP  RH WIND       PRES   REMARKS
GREELEY ARPT   FAIR      55  43  62 NW3       30.15R
AKRON          FAIR      66  42  41 SW13      30.12S
BURLINGTON     FAIR      66  43  43 S14       30.14S
WRAY           NOT AVBL
STERLING       FAIR      63  48  59 S7        30.10S
HOLYOKE        NOT AVBL
FORT MORGAN    FAIR      58  41  53 W8        30.13F
$$

COZ086-089-092>099-051600-
...SOUTHEAST COLORADO...

CITY           SKY/WX    TMP DP  RH WIND       PRES   REMARKS
PUEBLO         FAIR      62  39  42 CALM      30.14F
LA JUNTA       FAIR      60  44  55 W8        30.13R
LAMAR          FAIR      63  43  48 W7        30.09S
SPRINGFIELD      N/A     64  38  38 SW7       30.12F
$$



USA.gov is the U.S. government's official web portal to all federal, state and local government web resources and services.